FW5404 Weather Reports


time (UTC)temp
C
wind
direction
speed
KPH
gust
KPH
rain 1hr
cm
rain 24hr
cm
rain mn
cm
humidity
%
barometer
mb
20260502195004 12 112 3.2 3.2 0.00 0.00 0.00 100 1019.3
20260502194503 12 112 3.2 3.2 0.00 0.00 0.00 100 1019.3
20260502194004 12 112 3.2 3.2 0.00 0.00 0.00 100 1019.3
20260502193504 12 112 3.2 3.2 0.00 0.00 0.00 100 1019.3
20260502193004 12 112 3.2 3.2 0.00 0.00 0.00 100 1019.3
20260502192504 12 112 3.2 3.2 0.00 0.00 0.00 100 1019.3
20260502192004 12 112 3.2 3.2 0.00 0.00 0.00 100 1019.3
20260502191504 12 112 3.2 3.2 0.00 0.00 0.00 100 1019.3
20260502191005 12 112 3.2 3.2 0.00 0.00 0.00 100 1019.3
20260502190504 12 112 3.2 3.2 0.00 0.00 0.00 100 1019.3
20260502190006 12 112 3.2 3.2 0.00 0.00 0.00 97 1019.3
20260502185504 12 90 3.2 3.2 0.00 0.00 0.00 97 1019.3
20260502185003 12 90 3.2 3.2 0.00 0.00 0.00 97 1019.3
20260502184504 12 90 3.2 3.2 0.00 0.00 0.00 97 1019.3
20260502184006 12 90 3.2 4.8 0.00 0.00 0.00 97 1019.3
20260502183506 13 85 4.8 4.8 0.00 0.00 0.00 97 1019.3
20260502183006 13 74 4.8 4.8 0.00 0.00 0.00 97 1019.3
20260502182505 13 68 3.2 4.8 0.00 0.00 0.00 97 1019.3
20260502182006 13 68 1.6 4.8 0.00 0.00 0.00 97 1019.3
20260502181505 13 0 0.0 0.0 0.00 0.00 0.00 96 1019.3
20260502181006 13 0 0.0 0.0 0.00 0.00 0.00 97 1019.3
20260502180505 13 0 0.0 0.0 0.00 0.00 0.00 96 1019.3
20260502170506 13 112 3.2 3.2 0.00 0.00 0.00 97 1020.3
20260502164006 13 112 3.2 3.2 0.00 0.00 0.00 97 1020.3
20260502163505 13 112 3.2 3.2 0.00 0.00 0.00 97 1020.3
20260502163005 13 112 3.2 3.2 0.00 0.00 0.00 97 1020.3
20260502162506 13 112 3.2 3.2 0.00 0.00 0.00 97 1020.3
20260502162005 13 112 3.2 3.2 0.00 0.00 0.00 97 1020.3
20260502161505 13 112 3.2 3.2 0.00 0.00 0.00 97 1020.3
20260502161006 13 112 3.2 3.2 0.00 0.00 0.00 97 1020.3
20260502160505 13 112 3.2 3.2 0.00 0.00 0.00 97 1020.3
20260502152005 13 112 3.2 3.2 0.00 0.00 0.00 96 1021.3
20260502151505 13 112 3.2 3.2 0.00 0.00 0.00 95 1021.3
20260502151006 13 112 3.2 3.2 0.00 0.00 0.00 94 1021.3
20260502150505 13 112 3.2 3.2 0.00 0.00 0.00 94 1021.3
20260502130505 15 297 4.8 6.4 0.00 0.00 0.00 82 1021.3
20260502123505 17 68 0.0 3.2 0.00 0.00 0.00 78 1022.3
20260502123005 17 68 1.6 3.2 0.00 0.00 0.00 78 1022.3
20260502122505 17 68 4.8 4.8 0.00 0.00 0.00 78 1022.3
20260502122005 17 68 4.8 4.8 0.00 0.00 0.00 79 1022.3
20260502121505 16 68 4.8 4.8 0.00 0.00 0.00 79 1022.3
20260502121006 16 68 4.8 4.8 0.00 0.00 0.00 78 1022.3
20260502120505 16 68 4.8 4.8 0.00 0.00 0.00 78 1022.3
20260502115505 16 104 1.6 4.8 0.00 0.00 0.00 80 1022.3
20260502115006 16 104 1.6 4.8 0.00 0.00 0.00 80 1022.3
20260502114505 16 96 1.6 6.4 0.00 0.00 0.00 80 1022.3
20260502114005 16 87 1.6 6.4 0.00 0.00 0.00 80 1022.3
20260502113505 16 91 3.2 6.4 0.00 0.00 0.00 79 1022.3
20260502113005 16 124 3.2 4.8 0.00 0.00 0.00 79 1022.3
20260502112505 16 121 3.2 4.8 0.00 0.00 0.00 80 1022.3
20260502112006 16 112 3.2 4.8 0.00 0.00 0.00 80 1022.3
20260502111505 16 112 3.2 4.8 0.00 0.00 0.00 79 1022.3
20260502111005 16 111 3.2 4.8 0.00 0.00 0.00 79 1022.3
20260502110505 16 112 4.8 4.8 0.00 0.00 0.00 80 1022.3
20260502110007 16 101 4.8 8.0 0.00 0.00 0.00 81 1023.3
20260502105505 16 105 4.8 8.0 0.00 0.00 0.00 82 1023.3
20260502105005 16 120 3.2 8.0 0.00 0.00 0.00 82 1023.3
20260502104505 15 91 4.8 8.0 0.00 0.00 0.00 84 1023.3
20260502104005 15 87 4.8 8.0 0.00 0.00 0.00 84 1023.3
20260502103505 15 99 3.2 6.4 0.00 0.00 0.00 84 1023.3
20260502103004 15 97 3.2 6.4 0.00 0.00 0.00 85 1023.3
20260502102505 15 93 4.8 6.4 0.00 0.00 0.00 86 1023.3
20260502101504 14 81 4.8 6.4 0.00 0.00 0.00 86 1023.3
20260502101006 14 81 4.8 6.4 0.00 0.00 0.00 86 1023.3
20260502100505 14 83 4.8 6.4 0.00 0.00 0.00 86 1023.3
20260502091504 13 112 4.8 4.8 0.00 0.00 0.00 88 1024.4
20260502091005 13 112 4.8 4.8 0.00 0.00 0.00 88 1024.4
20260502090504 14 112 6.4 6.4 0.00 0.00 0.00 88 1024.4
20260502071505 12 113 4.8 6.4 0.00 0.00 0.00 97 1025.4
20260502071005 12 105 6.4 6.4 0.00 0.00 0.00 97 1025.4
20260502070508 12 106 6.4 6.4 0.00 0.00 0.00 100 1025.4
20260502070006 11 108 6.4 6.4 0.00 0.00 0.00 100 1025.4
20260502065505 11 105 6.4 6.4 0.00 0.00 0.00 100 1025.4
20260502065004 11 90 4.8 6.4 0.00 0.00 0.00 100 1025.4
20260502064505 11 79 4.8 8.0 0.00 0.00 0.00 100 1025.4
20260502064004 11 87 4.8 8.0 0.00 0.00 0.00 100 1025.4
20260502063505 11 90 6.4 8.0 0.00 0.00 0.00 100 1025.4
20260502063005 11 90 6.4 6.4 0.00 0.00 0.00 100 1025.4
20260502062504 11 93 6.4 6.4 0.00 0.00 0.00 100 1025.4
20260502062005 11 103 4.8 6.4 0.00 0.00 0.00 99 1025.4
20260502061505 11 112 6.4 6.4 0.00 0.00 0.00 99 1025.4
20260502061004 11 112 4.8 6.4 0.00 0.00 0.00 100 1025.4
20260502060504 11 107 4.8 6.4 0.00 0.00 0.00 100 1025.4
20260502060006 11 103 4.8 9.7 0.00 0.00 0.00 100 1025.4
20260502055505 10 106 4.8 9.7 0.00 0.00 0.00 99 1025.4
20260502055004 10 112 4.8 4.8 0.00 0.00 0.00 99 1025.4
20260502054504 10 106 4.8 4.8 0.00 0.00 0.00 99 1025.4
20260502054005 10 94 4.8 4.8 0.00 0.00 0.00 99 1025.4
20260502053505 10 84 4.8 6.4 0.00 0.00 0.00 99 1025.4
20260502053005 10 76 4.8 6.4 0.00 0.00 0.00 99 1025.4
20260502052504 10 68 4.8 6.4 0.00 0.00 0.00 99 1025.4
20260502052005 10 78 4.8 4.8 0.00 0.00 0.00 99 1025.4
20260502051504 10 85 3.2 4.8 0.00 0.00 0.00 99 1025.4
20260502051005 10 90 3.2 4.8 0.00 0.00 0.00 99 1025.4
20260502050504 10 99 3.2 4.8 0.00 0.00 0.00 99 1025.4
20260502050006 10 107 4.8 6.4 0.00 0.00 0.00 99 1025.4
20260502045505 10 101 4.8 6.4 0.00 0.00 0.00 99 1025.4
20260502045004 10 94 4.8 4.8 0.00 0.00 0.00 99 1025.4
20260502044504 10 90 4.8 4.8 0.00 0.00 0.00 99 1026.4
20260502044005 10 87 3.2 4.8 0.00 0.00 0.00 99 1026.4
20260502043504 10 84 3.2 4.8 0.00 0.00 0.00 99 1026.4
20260502043005 10 86 3.2 4.8 0.00 0.00 0.00 99 1026.4
20260502042504 10 103 4.8 4.8 0.00 0.00 0.00 99 1026.4
20260502042004 10 110 4.8 6.4 0.00 0.00 0.00 99 1026.4
20260502041504 10 112 4.8 6.4 0.00 0.00 0.00 99 1026.4
20260502041005 10 112 6.4 6.4 0.00 0.00 0.00 99 1026.4
20260502040504 9 112 4.8 6.4 0.00 0.00 0.00 99 1026.4
20260502040006 9 106 3.2 6.4 0.00 0.00 0.00 100 1026.4
20260502035504 9 103 4.8 6.4 0.00 0.00 0.00 100 1026.4
20260502035005 9 99 4.8 6.4 0.00 0.00 0.00 100 1026.4
20260502034504 9 102 4.8 6.4 0.00 0.00 0.00 97 1026.4
20260502034005 9 104 4.8 6.4 0.00 0.00 0.00 97 1026.4
20260502033504 9 99 3.2 4.8 0.00 0.00 0.00 97 1026.4
20260502033005 9 116 1.6 4.8 0.00 0.00 0.00 96 1026.4
20260502032504 8 146 1.6 3.2 0.00 0.00 0.00 96 1026.4
20260502032005 8 169 1.6 3.2 0.00 0.00 0.00 96 1026.4
20260502031504 8 142 3.2 3.2 0.00 0.00 0.00 96 1026.4
20260502031004 9 105 1.6 3.2 0.00 0.00 0.00 97 1026.4
20260502030504 9 110 3.2 3.2 0.00 0.00 0.00 97 1026.4
20260502030006 9 108 4.8 6.4 0.00 0.00 0.00 97 1026.4
20260502025504 9 98 6.4 6.4 0.00 0.00 0.00 97 1026.4
20260502025004 9 86 6.4 8.0 0.00 0.00 0.00 100 1026.4
20260502024504 9 82 4.8 8.0 0.00 0.00 0.00 97 1026.4
20260502024004 9 93 4.8 6.4 0.00 0.00 0.00 97 1026.4
20260502023504 9 94 4.8 6.4 0.00 0.00 0.00 97 1026.4
20260502023005 9 90 6.4 6.4 0.00 0.00 0.00 97 1026.4
20260502022505 9 92 6.4 6.4 0.00 0.00 0.00 96 1026.4
20260502022004 9 91 6.4 8.0 0.00 0.00 0.00 96 1026.4
20260502021504 9 93 6.4 8.0 0.00 0.00 0.00 96 1027.4
20260502021004 9 92 4.8 8.0 0.00 0.00 0.00 96 1027.4
20260502020505 9 92 4.8 6.4 0.00 0.00 0.00 96 1027.4
20260502020006 9 90 3.2 6.4 0.00 0.00 0.00 95 1027.4
20260502015504 9 91 4.8 6.4 0.00 0.00 0.00 95 1027.4
20260502015005 9 88 3.2 4.8 0.00 0.00 0.00 94 1027.4
20260502014504 10 86 3.2 4.8 0.00 0.00 0.00 94 1027.4
20260502014004 10 85 3.2 4.8 0.00 0.00 0.00 94 1027.4
20260502013504 10 86 3.2 4.8 0.00 0.00 0.00 94 1027.4
20260502013005 10 90 3.2 4.8 0.00 0.00 0.00 93 1027.4
20260502012505 10 93 3.2 4.8 0.00 0.00 0.00 94 1027.4
20260502012004 10 100 3.2 4.8 0.00 0.00 0.00 94 1027.4
20260502011504 10 102 1.6 3.2 0.00 0.00 0.00 93 1027.4
20260502011004 10 104 1.6 3.2 0.00 0.00 0.00 93 1027.4
20260502010505 10 109 1.6 3.2 0.00 0.00 0.00 92 1027.4
20260502010006 10 103 1.6 3.2 0.00 0.00 0.00 92 1027.4
20260502005504 10 101 1.6 3.2 0.00 0.00 0.00 92 1027.4
20260502005004 9 101 0.0 3.2 0.00 0.00 0.00 91 1027.4
20260502004504 9 203 0.0 1.6 0.00 0.00 0.00 91 1028.4
20260502004005 9 203 0.0 1.6 0.00 0.00 0.00 91 1028.4
20260502003504 10 0 0.0 0.0 0.00 0.00 0.00 91 1028.4
20260502003004 10 0 0.0 0.0 0.00 0.00 0.00 91 1028.4
20260502002505 10 0 0.0 0.0 0.00 0.00 0.00 91 1028.4
20260502002003 10 158 0.0 3.2 0.00 0.00 0.00 91 1028.4
20260502001505 10 166 1.6 3.2 0.00 0.00 0.00 91 1028.4
20260502001004 10 134 1.6 3.2 0.00 0.00 0.00 91 1028.4
20260502000504 10 97 1.6 4.8 0.00 0.00 0.00 91 1028.4
20260502000005 10 89 1.6 4.8 0.00 0.00 0.00 91 1028.4
20260501235504 10 103 0.0 3.2 0.00 0.00 0.00 91 1028.4
20260501235003 10 0 0.0 0.0 0.00 0.00 0.00 90 1028.4
20260501234504 10 171 1.6 3.2 0.00 0.00 0.00 91 1028.4
20260501234004 10 174 1.6 3.2 0.00 0.00 0.00 91 1028.4
20260501233504 10 149 0.0 3.2 0.00 0.00 0.00 91 1028.4
20260501233004 10 112 0.0 1.6 0.00 0.00 0.00 91 1028.4
20260501232504 10 0 0.0 0.0 0.00 0.00 0.00 91 1028.4
20260501232004 10 0 0.0 0.0 0.00 0.00 0.00 91 1028.4
20260501231504 11 261 0.0 3.2 0.00 0.00 0.00 91 1028.4
20260501231003 11 258 0.0 3.2 0.00 0.00 0.00 90 1028.4
20260501230503 11 248 0.0 1.6 0.00 0.00 0.00 90 1028.4
20260501230008 11 0 0.0 0.0 0.00 0.00 0.00 91 1029.4
20260501225504 11 90 0.0 1.6 0.00 0.00 0.00 90 1029.4
20260501225004 11 102 1.6 3.2 0.00 0.00 0.00 91 1029.4
20260501224504 11 105 1.6 3.2 0.00 0.00 0.00 90 1029.4
20260501224004 11 158 0.0 1.6 0.00 0.00 0.00 90 1029.4
20260501223504 11 158 0.0 1.6 0.00 0.00 0.00 90 1029.4
20260501223004 11 158 0.0 1.6 0.00 0.00 0.00 90 1029.4
20260501222505 11 178 0.0 3.2 0.00 0.00 0.00 90 1029.4
20260501222005 12 189 1.6 3.2 0.00 0.00 0.00 90 1029.4
20260501221504 12 112 1.6 3.2 0.00 0.00 0.00 90 1030.4
20260501221004 12 90 1.6 3.2 0.00 0.00 0.00 91 1030.4
20260501220504 12 90 1.6 3.2 0.00 0.00 0.00 91 1030.4
20260501220006 12 90 3.2 4.8 0.00 0.00 0.00 90 1030.4
20260501215506 12 90 1.6 4.8 0.00 0.00 0.00 90 1030.4